This is the latest recevied weather packets stored in our database for station/object DK6GC-10. If no packets are shown the sender has not sent any weather packets the latest 10 day(s).
| Time | Temp. | Humidity | Pressure | Rain* | Wind** | Luminosity | Snow |
|---|---|---|---|---|---|---|---|
| 1788137121 | 18.33° C | 100% | 1016.7 hPa | - | - | - | - |
| 1788136221 | 18.33° C | 100% | 1016.6 hPa | - | - | - | - |
| 1788135321 | 18.33° C | 100% | 1016.6 hPa | - | - | - | - |
| 1788134425 | 18.33° C | 100% | 1016.7 hPa | - | - | - | - |
| 1788133525 | 17.78° C | 100% | 1015.9 hPa | - | - | - | - |
| 1788132625 | 18.33° C | 99% | 1015.9 hPa | - | - | - | - |
| 1788131724 | 18.33° C | 93% | 1015.9 hPa | - | - | - | - |
| 1788130824 | 18.89° C | 86% | 1016.3 hPa | - | - | - | - |
| 1788129924 | 19.44° C | 70% | 1014.6 hPa | - | - | - | - |
| 1788129024 | 19.44° C | 69% | 1014.3 hPa | - | - | - | - |
| 1788128124 | 19.44° C | 74% | 1014.5 hPa | - | - | - | - |
| 1788127224 | 19.44° C | 72% | 1014.6 hPa | - | - | - | - |
| 1788126323 | 19.44° C | 72% | 1014.6 hPa | - | - | - | - |
| 1788125423 | 19.44° C | 71% | 1014.6 hPa | - | - | - | - |
| 1788124523 | 19.44° C | 73% | 1014.7 hPa | - | - | - | - |
| 1788123623 | 19.44° C | 72% | 1014.8 hPa | - | - | - | - |
| 1788122723 | 19.44° C | 73% | 1015 hPa | - | - | - | - |
| 1788121823 | 19.44° C | 71% | 1015 hPa | - | - | - | - |
| 1788120922 | 19.44° C | 71% | 1015.1 hPa | - | - | - | - |
| 1788120022 | 20° C | 71% | 1015.1 hPa | - | - | - | - |
| 1788119122 | 19.44° C | 69% | 1015.2 hPa | - | - | - | - |
| 1788118221 | 20° C | 69% | 1015.2 hPa | - | - | - | - |
| 1788117321 | 20° C | 69% | 1015.2 hPa | - | - | - | - |
| 1788116420 | 20° C | 68% | 1015.2 hPa | - | - | - | - |
| 1788115520 | 20.56° C | 67% | 1015.1 hPa | - | - | - | - |
* Rain since midnight (hover to see other rain measurements)
** Current wind speed in m/s (hover to see current wind gust speed)